• în Republica Moldova
  • Lista ţărilor
  • Pe 7 zile
  • Temperatura apei
  • Hartă satelitară
  • Meteo pe hartă
  • Widget-uri
  • user-avatar
    Intrare

    Meteo pe oră la Tibissa

    Astăzi, 18 Ianuarie, Miercuri

    Timp Temperatura Precipitaţii Vânt Presiune Umiditate
    00:00 -4°C° 0 mm 4 m/s 677 mmHg 86%
    01:00 -5°C° 0 mm 5 m/s 676 mmHg 82%
    02:00 -4°C° 0 mm 5 m/s 677 mmHg 84%
    03:00 -3°C° 0 mm 4 m/s 677 mmHg 85%
    04:00 -3°C° 0 mm 4 m/s 677 mmHg 87%
    05:00 -3°C° 0 mm 4 m/s 677 mmHg 88%
    06:00 -3°C° 0 mm 4 m/s 677 mmHg 89%
    07:00 -3°C° 0 mm 4 m/s 678 mmHg 90%
    08:00 -2°C° 0 mm 4 m/s 678 mmHg 82%
    09:00 0°C° 0 mm 5 m/s 679 mmHg 74%
    10:00 +1°C° 0 mm 6 m/s 680 mmHg 66%
    11:00 +2°C° 0 mm 6 m/s 680 mmHg 61%
    12:00 +3°C° 0 mm 6 m/s 680 mmHg 56%
    13:00 +5°C° 0 mm 6 m/s 681 mmHg 51%
    14:00 +4°C° 0 mm 6 m/s 681 mmHg 52%
    15:00 +4°C° 0 mm 6 m/s 681 mmHg 53%
    16:00 +5°C° 0 mm 5 m/s 681 mmHg 54%
    17:00 +4°C° 0 mm 4 m/s 681 mmHg 62%
    18:00 +1°C° 0 mm 4 m/s 681 mmHg 70%
    19:00 0°C° 0 mm 3 m/s 681 mmHg 77%
    20:00 0°C° 0 mm 3 m/s 682 mmHg 79%
    21:00 +1°C° 0 mm 2 m/s 682 mmHg 81%
    22:00 -1°C° 0 mm 2 m/s 682 mmHg 84%
    23:00 -1°C° 0 mm 2 m/s 682 mmHg 83%

    Mâine, 19 Ianuarie, Joi

    Timp Temperatura Precipitaţii Vânt Presiune Umiditate
    00:00 -1°C° 0 mm 2 m/s 683 mmHg 83%
    01:00 -1°C° 0 mm 2 m/s 683 mmHg 83%
    02:00 -1°C° 0 mm 2 m/s 683 mmHg 81%
    03:00 -2°C° 0 mm 2 m/s 683 mmHg 79%
    04:00 0°C° 0 mm 1 m/s 683 mmHg 77%
    05:00 0°C° 0 mm 1 m/s 683 mmHg 76%
    06:00 0°C° 0 mm 1 m/s 683 mmHg 75%
    07:00 0°C° 0 mm 1 m/s 683 mmHg 73%
    08:00 +2°C° 0 mm 1 m/s 684 mmHg 64%
    09:00 +4°C° 0 mm 1 m/s 685 mmHg 55%
    10:00 +6°C° 0 mm 1 m/s 686 mmHg 45%
    11:00 +7°C° 0 mm 1 m/s 685 mmHg 41%
    12:00 +8°C° 0 mm 1 m/s 685 mmHg 36%
    13:00 +8°C° 0 mm 2 m/s 685 mmHg 32%
    14:00 +8°C° 0 mm 2 m/s 685 mmHg 32%
    15:00 +8°C° 0 mm 2 m/s 685 mmHg 32%
    16:00 +8°C° 0 mm 2 m/s 685 mmHg 32%
    17:00 +7°C° 0 mm 2 m/s 685 mmHg 39%
    18:00 +5°C° 0 mm 2 m/s 684 mmHg 45%
    19:00 +3°C° 0 mm 2 m/s 684 mmHg 51%
    20:00 +2°C° 0 mm 2 m/s 684 mmHg 53%
    21:00 +2°C° 0 mm 2 m/s 684 mmHg 55%
    22:00 +1°C° 0 mm 2 m/s 684 mmHg 56%
    23:00 +1°C° 0 mm 2 m/s 684 mmHg 58%

    Poimâine, 20 Ianuarie, Vineri

    Timp Temperatura Precipitaţii Vânt Presiune Umiditate
    00:00 +1°C° 0 mm 2 m/s 684 mmHg 60%
    01:00 +1°C° 0 mm 2 m/s 684 mmHg 61%
    02:00 +1°C° 0 mm 2 m/s 684 mmHg 64%
    03:00 -1°C° 0 mm 2 m/s 684 mmHg 67%
    04:00 -1°C° 0 mm 2 m/s 683 mmHg 70%
    05:00 -1°C° 0 mm 2 m/s 683 mmHg 74%
    06:00 -1°C° 0 mm 2 m/s 683 mmHg 78%
    07:00 -1°C° 0 mm 2 m/s 683 mmHg 82%
    08:00 +1°C° 0 mm 3 m/s 683 mmHg 79%
    09:00 +3°C° 0 mm 4 m/s 684 mmHg 77%
    10:00 +3°C° 0 mm 5 m/s 684 mmHg 74%
    11:00 +4°C° 0 mm 6 m/s 684 mmHg 73%
    12:00 +5°C° 0 mm 6 m/s 683 mmHg 73%
    13:00 +6°C° 0 mm 7 m/s 683 mmHg 72%
    14:00 +6°C° 0 mm 7 m/s 682 mmHg 73%
    15:00 +6°C° 0 mm 7 m/s 682 mmHg 74%
    16:00 +6°C° 0 mm 7 m/s 681 mmHg 76%
    17:00 +5°C° 0 mm 6 m/s 681 mmHg 81%
    18:00 +5°C° 0 mm 6 m/s 681 mmHg 86%
    19:00 +5°C° 0 mm 5 m/s 681 mmHg 91%
    20:00 +5°C° 0 mm 5 m/s 681 mmHg 92%
    21:00 +3°C° 0 mm 5 m/s 681 mmHg 93%
    22:00 +3°C° 0 mm 5 m/s 680 mmHg 94%
    23:00 +3°C° 0 mm 5 m/s 680 mmHg 94%

    21 Ianuarie, Sâmbătă

    Timp Temperatura Precipitaţii Vânt Presiune Umiditate
    00:00 +3°C° 0 mm 4 m/s 679 mmHg 94%
    01:00 +3°C° 0 mm 3 m/s 679 mmHg 95%
    02:00 +2°C° 0 mm 3 m/s 678 mmHg 94%
    03:00 +1°C° 0 mm 3 m/s 678 mmHg 93%
    04:00 +2°C° 0 mm 2 m/s 677 mmHg 92%
    05:00 +2°C° 0 mm 2 m/s 677 mmHg 89%
    06:00 +1°C° 0 mm 2 m/s 677 mmHg 85%
    07:00 +1°C° 0 mm 2 m/s 677 mmHg 82%
    08:00 +2°C° 0 mm 3 m/s 677 mmHg 73%
    09:00 +3°C° 0 mm 3 m/s 678 mmHg 64%
    10:00 +5°C° 0 mm 4 m/s 678 mmHg 55%
    11:00 +5°C° 0 mm 4 m/s 678 mmHg 50%
    12:00 +6°C° 0 mm 5 m/s 678 mmHg 45%
    13:00 +7°C° 0 mm 5 m/s 678 mmHg 40%
    14:00 +7°C° 0 mm 5 m/s 678 mmHg 42%
    15:00 +6°C° 0 mm 5 m/s 678 mmHg 44%
    16:00 +5°C° 0 mm 6 m/s 677 mmHg 46%
    17:00 +5°C° 0 mm 5 m/s 677 mmHg 52%
    18:00 +3°C° 0 mm 4 m/s 678 mmHg 59%
    19:00 +1°C° 0 mm 4 m/s 678 mmHg 65%
    20:00 0°C° 0 mm 4 m/s 678 mmHg 66%
    21:00 +1°C° 0 mm 3 m/s 678 mmHg 67%
    22:00 +1°C° 0 mm 3 m/s 679 mmHg 68%
    23:00 +1°C° 0 mm 3 m/s 679 mmHg 68%

    22 Ianuarie, Duminică

    Timp Temperatura Precipitaţii Vânt Presiune Umiditate
    00:00 +1°C° 0 mm 3 m/s 679 mmHg 69%
    01:00 0°C° 0 mm 4 m/s 679 mmHg 69%
    02:00 0°C° 0 mm 3 m/s 679 mmHg 73%
    03:00 0°C° 0 mm 3 m/s 679 mmHg 78%
    04:00 0°C° 0 mm 3 m/s 679 mmHg 82%
    05:00 0°C° 0 mm 3 m/s 679 mmHg 85%
    06:00 0°C° 0 mm 3 m/s 679 mmHg 87%
    07:00 0°C° 0 mm 3 m/s 679 mmHg 89%
    08:00 0°C° 0 mm 4 m/s 680 mmHg 80%
    09:00 +2°C° 0 mm 5 m/s 681 mmHg 71%
    10:00 +3°C° 0 mm 7 m/s 681 mmHg 62%
    11:00 +4°C° 0 mm 7 m/s 681 mmHg 57%
    12:00 +5°C° 0 mm 8 m/s 681 mmHg 53%
    13:00 +6°C° 0 mm 8 m/s 681 mmHg 49%
    14:00 +6°C° 0 mm 8 m/s 681 mmHg 51%
    15:00 +6°C° 0 mm 7 m/s 681 mmHg 53%
    16:00 +5°C° 0 mm 7 m/s 680 mmHg 56%
    17:00 +4°C° 0 mm 6 m/s 681 mmHg 63%
    18:00 +3°C° 0 mm 5 m/s 681 mmHg 69%
    19:00 +2°C° 0 mm 3 m/s 681 mmHg 76%
    20:00 +2°C° 0 mm 3 m/s 682 mmHg 78%
    21:00 +1°C° 0 mm 3 m/s 682 mmHg 81%
    22:00 +2°C° 0 mm 2 m/s 682 mmHg 83%
    23:00 +2°C° 0 mm 2 m/s 682 mmHg 84%

    23 Ianuarie, Luni

    Timp Temperatura Precipitaţii Vânt Presiune Umiditate
    00:00 +2°C° 0 mm 2 m/s 682 mmHg 85%
    01:00 +1°C° 0 mm 2 m/s 682 mmHg 86%
    02:00 +1°C° 0 mm 2 m/s 682 mmHg 87%
    03:00 +1°C° 0 mm 2 m/s 682 mmHg 87%
    04:00 +1°C° 0 mm 2 m/s 683 mmHg 88%
    05:00 +1°C° 0 mm 2 m/s 683 mmHg 88%
    06:00 +1°C° 0 mm 2 m/s 683 mmHg 88%
    07:00 +1°C° 0 mm 1 m/s 683 mmHg 88%
    08:00 +3°C° 0 mm 1 m/s 684 mmHg 79%
    09:00 +5°C° 0 mm 1 m/s 685 mmHg 70%
    10:00 +7°C° 0 mm 1 m/s 685 mmHg 61%
    11:00 +8°C° 0 mm 1 m/s 685 mmHg 53%
    12:00 +8°C° 0 mm 2 m/s 685 mmHg 46%
    13:00 +10°C° 0 mm 2 m/s 685 mmHg 38%
    14:00 +10°C° 0 mm 2 m/s 685 mmHg 37%
    15:00 +10°C° 0 mm 2 m/s 685 mmHg 35%
    16:00 +10°C° 0 mm 2 m/s 685 mmHg 34%
    17:00 +8°C° 0 mm 2 m/s 685 mmHg 42%
    18:00 +7°C° 0 mm 1 m/s 685 mmHg 49%
    19:00 +5°C° 0 mm 1 m/s 685 mmHg 57%
    20:00 +4°C° 0 mm 1 m/s 685 mmHg 60%
    21:00 +4°C° 0 mm 1 m/s 685 mmHg 63%
    22:00 +3°C° 0 mm 1 m/s 685 mmHg 66%
    23:00 +3°C° 0 mm 1 m/s 685 mmHg 69%
    Arată mai mult